sat.trackr.live / text

‹ back to catalog

HULIANWANG DIGUI-164

NORAD 68656 · 2026-076A

PAYLOAD ACTIVE UNKNOWN

§ Identity

Operator
Country
PRC
Launch date
2026-04-08
Launch site
TAISC
Launch vehicle
Mass (kg)
RCS (m²)

External: N2YO · Heavens-Above · Gunter

§ Orbital elements

Epoch: 2026-05-24T14:01:05.833056Z

Period
107.90 min
Inclination
86.4979°
Eccentricity
0.0002625
Mean motion
13.34575222 rev/d
Perigee alt
1,127.6 km
Apogee alt
1,131.5 km
Semi-major
7,507.7 km
B*
-8.3699e-4
RAAN
51.8734°
Arg perigee
81.2440°
Mean anomaly
278.8997°
Rev number
624

§ Raw data

HULIANWANG DIGUI-1641 68656U 26076A   26144.58409529 -.00000404  00000+0 -83699-3 0  99982 68656  86.4979  51.8734 0002625  81.2440 278.8997 13.34575222  6244

JSON: /api/v1/satellites/68656 · /tle

For live sub-satellite position, see the globe view (requires WebGL).

§ Visibility from observer

Set your observer location to see the next 7 days of passes ≥ 10°. The values pass through the URL so the page stays shareable.

No JS? Fill the form by hand. The geolocation button needs JavaScript.